Year,Month,Day,Hour,Minute,Value (Times are PST for temperature in C)
2012,07,01,00,00,12.40
2012,07,01,00,01,12.40
2012,07,01,00,02,12.40
2012,07,01,00,03,12.40
2012,07,01,00,04,12.40
2012,07,01,00,05,12.40
2012,07,01,00,06,12.40
2012,07,01,00,07,12.40
2012,07,01,00,08,12.40
2012,07,01,00,09,12.40
2012,07,01,00,10,12.30
2012,07,01,00,11,12.30
2012,07,01,00,12,12.30
2012,07,01,00,13,12.30
2012,07,01,00,14,12.30
2012,07,01,00,15,12.30
2012,07,01,00,16,12.30
2012,07,01,00,17,12.30
2012,07,01,00,18,12.30
2012,07,01,00,19,12.40
2012,07,01,00,20,12.40
2012,07,01,00,21,12.40
2012,07,01,00,22,12.30
2012,07,01,00,23,12.40
2012,07,01,00,24,12.30
2012,07,01,00,25,12.30
2012,07,01,00,26,12.40
2012,07,01,00,27,12.40
2012,07,01,00,28,12.30
2012,07,01,00,29,12.30
2012,07,01,00,30,12.30
2012,07,01,00,31,12.30
2012,07,01,00,32,12.30
2012,07,01,00,33,12.30
2012,07,01,00,34,12.30
2012,07,01,00,35,12.30
2012,07,01,00,36,12.30
2012,07,01,00,37,12.30
2012,07,01,00,38,12.30
2012,07,01,00,39,12.30
2012,07,01,00,40,12.30
2012,07,01,00,41,12.30
2012,07,01,00,42,12.30
2012,07,01,00,43,12.30
2012,07,01,00,44,12.30
2012,07,01,00,45,12.30
2012,07,01,00,46,12.30
2012,07,01,00,47,12.30
2012,07,01,00,48,12.30
2012,07,01,00,49,12.30
2012,07,01,00,50,12.30
2012,07,01,00,51,12.30
2012,07,01,00,52,12.30
2012,07,01,00,53,12.30
2012,07,01,00,54,12.30
2012,07,01,00,55,12.30
2012,07,01,00,56,12.30
2012,07,01,00,57,12.20
2012,07,01,00,58,12.20
2012,07,01,00,59,12.20
2012,07,01,01,00,12.20
2012,07,01,01,01,12.20
2012,07,01,01,02,12.20
2012,07,01,01,03,12.20
2012,07,01,01,04,12.20
2012,07,01,01,05,12.20
2012,07,01,01,06,12.20
2012,07,01,01,07,12.20
2012,07,01,01,08,12.20
2012,07,01,01,09,12.20
2012,07,01,01,10,12.20
2012,07,01,01,11,12.20
2012,07,01,01,12,12.20
2012,07,01,01,13,12.20
2012,07,01,01,14,12.20
2012,07,01,01,15,12.20
2012,07,01,01,16,12.20
2012,07,01,01,17,12.20
2012,07,01,01,18,12.20
2012,07,01,01,19,12.20
2012,07,01,01,20,12.20
2012,07,01,01,21,12.20
2012,07,01,01,22,12.30
2012,07,01,01,23,12.30
2012,07,01,01,24,12.30
2012,07,01,01,25,12.30
2012,07,01,01,26,12.20
2012,07,01,01,27,12.20
2012,07,01,01,28,12.20
2012,07,01,01,29,12.20
2012,07,01,01,30,12.20
2012,07,01,01,31,12.20
2012,07,01,01,32,12.20
2012,07,01,01,33,12.20
2012,07,01,01,34,12.20
2012,07,01,01,35,12.20
2012,07,01,01,36,12.20
2012,07,01,01,37,12.20
2012,07,01,01,38,12.20
2012,07,01,01,39,12.20
2012,07,01,01,40,12.20
2012,07,01,01,41,12.20
2012,07,01,01,42,12.30
2012,07,01,01,43,12.30
2012,07,01,01,44,12.30
2012,07,01,01,45,12.20
2012,07,01,01,46,12.20
2012,07,01,01,47,12.20
2012,07,01,01,48,12.20
2012,07,01,01,49,12.20
2012,07,01,01,50,12.20
2012,07,01,01,51,12.20
2012,07,01,01,52,12.20
2012,07,01,01,53,12.20
2012,07,01,01,54,12.20
2012,07,01,01,55,12.20
2012,07,01,01,56,12.20
2012,07,01,01,57,12.20
2012,07,01,01,58,12.20
2012,07,01,01,59,12.20
2012,07,01,02,00,12.20
2012,07,01,02,01,12.20
2012,07,01,02,02,12.20
2012,07,01,02,03,12.20
2012,07,01,02,04,12.20
2012,07,01,02,05,12.20
2012,07,01,02,06,12.20
2012,07,01,02,07,12.20
2012,07,01,02,08,12.20
2012,07,01,02,09,12.20
2012,07,01,02,10,12.20
2012,07,01,02,11,12.20
2012,07,01,02,12,12.20
2012,07,01,02,13,12.20
2012,07,01,02,14,12.20
2012,07,01,02,15,12.20
2012,07,01,02,16,12.20
2012,07,01,02,17,12.20
2012,07,01,02,18,12.20
2012,07,01,02,19,12.20
2012,07,01,02,20,12.20
2012,07,01,02,21,12.20
2012,07,01,02,22,12.20
2012,07,01,02,23,12.20
2012,07,01,02,24,12.20
2012,07,01,02,25,12.20
2012,07,01,02,26,12.10
2012,07,01,02,27,12.10
2012,07,01,02,28,12.10
2012,07,01,02,29,12.10
2012,07,01,02,30,12.20
2012,07,01,02,31,12.10
2012,07,01,02,32,12.10
2012,07,01,02,33,12.10
2012,07,01,02,34,12.20
2012,07,01,02,35,12.20
2012,07,01,02,36,12.10
2012,07,01,02,37,12.10
2012,07,01,02,38,12.10
2012,07,01,02,39,12.10
2012,07,01,02,40,12.10
2012,07,01,02,41,12.10
2012,07,01,02,42,12.10
2012,07,01,02,43,12.10
2012,07,01,02,44,12.10
2012,07,01,02,45,12.10
2012,07,01,02,46,12.20
2012,07,01,02,47,12.20
2012,07,01,02,48,12.20
2012,07,01,02,49,12.10
2012,07,01,02,50,12.10
2012,07,01,02,51,12.10
2012,07,01,02,52,12.10
2012,07,01,02,53,12.10
2012,07,01,02,54,12.10
2012,07,01,02,55,12.10
2012,07,01,02,56,12.10
2012,07,01,02,57,12.10
2012,07,01,02,58,12.10
2012,07,01,02,59,12.10
2012,07,01,03,00,12.10
2012,07,01,03,01,12.10
2012,07,01,03,02,12.10
2012,07,01,03,03,12.10
2012,07,01,03,04,12.10
2012,07,01,03,05,12.10
2012,07,01,03,06,12.10
2012,07,01,03,07,12.10
2012,07,01,03,08,12.10
2012,07,01,03,09,12.10
2012,07,01,03,10,12.10
2012,07,01,03,11,12.10
2012,07,01,03,12,12.10
2012,07,01,03,13,12.10
2012,07,01,03,14,12.10
2012,07,01,03,15,12.20
2012,07,01,03,16,12.20
2012,07,01,03,17,12.20
2012,07,01,03,18,12.10
2012,07,01,03,19,12.10
2012,07,01,03,20,12.10
2012,07,01,03,21,12.10
2012,07,01,03,22,12.10
2012,07,01,03,23,12.10
2012,07,01,03,24,12.10
2012,07,01,03,25,12.10
2012,07,01,03,26,12.10
2012,07,01,03,27,12.10
2012,07,01,03,28,12.10
2012,07,01,03,29,12.10
2012,07,01,03,30,12.10
2012,07,01,03,31,12.20
2012,07,01,03,32,12.20
2012,07,01,03,33,12.20
2012,07,01,03,34,12.20
2012,07,01,03,35,12.20
2012,07,01,03,36,12.20
2012,07,01,03,37,12.20
2012,07,01,03,38,12.10
2012,07,01,03,39,12.10
2012,07,01,03,40,12.10
2012,07,01,03,41,12.10
2012,07,01,03,42,12.10
2012,07,01,03,43,12.10
2012,07,01,03,44,12.10
2012,07,01,03,45,12.10
2012,07,01,03,46,12.10
2012,07,01,03,47,12.10
2012,07,01,03,48,12.10
2012,07,01,03,49,12.10
2012,07,01,03,50,12.10
2012,07,01,03,51,12.10
2012,07,01,03,52,12.10
2012,07,01,03,53,12.10
2012,07,01,03,54,12.10
2012,07,01,03,55,12.10
2012,07,01,03,56,12.10
2012,07,01,03,57,12.10
2012,07,01,03,58,12.10
2012,07,01,03,59,12.10
2012,07,01,04,00,12.10
2012,07,01,04,01,12.10
2012,07,01,04,02,12.10
2012,07,01,04,03,12.10
2012,07,01,04,04,12.10
2012,07,01,04,05,12.10
2012,07,01,04,06,12.10
2012,07,01,04,07,12.10
2012,07,01,04,08,12.10
2012,07,01,04,09,12.10
2012,07,01,04,10,12.10
2012,07,01,04,11,12.10
2012,07,01,04,12,12.10
2012,07,01,04,13,12.10
2012,07,01,04,14,12.10
2012,07,01,04,15,12.10
2012,07,01,04,16,12.10
2012,07,01,04,17,12.10
2012,07,01,04,18,12.10
2012,07,01,04,19,12.10
2012,07,01,04,20,12.10
2012,07,01,04,21,12.10
2012,07,01,04,22,12.10
2012,07,01,04,23,12.10
2012,07,01,04,24,12.10
2012,07,01,04,25,12.10
2012,07,01,04,26,12.10
2012,07,01,04,27,12.10
2012,07,01,04,28,12.00
2012,07,01,04,29,12.10
2012,07,01,04,30,12.00
2012,07,01,04,31,12.00
2012,07,01,04,32,12.00
2012,07,01,04,33,12.00
2012,07,01,04,34,12.00
2012,07,01,04,35,12.00
2012,07,01,04,36,12.00
2012,07,01,04,37,12.00
2012,07,01,04,38,12.00
2012,07,01,04,39,12.00
2012,07,01,04,40,12.00
2012,07,01,04,41,12.00
2012,07,01,04,42,12.00
2012,07,01,04,43,12.00
2012,07,01,04,44,12.00
2012,07,01,04,45,12.00
2012,07,01,04,46,12.00
2012,07,01,04,47,12.00
2012,07,01,04,48,12.00
2012,07,01,04,49,12.00
2012,07,01,04,50,12.00
2012,07,01,04,51,12.00
2012,07,01,04,52,12.00
2012,07,01,04,53,12.00
2012,07,01,04,54,12.00
2012,07,01,04,55,12.00
2012,07,01,04,56,12.00
2012,07,01,04,57,11.90
2012,07,01,04,58,12.00
2012,07,01,04,59,12.00
2012,07,01,05,00,11.90
2012,07,01,05,01,11.90
2012,07,01,05,02,12.00
2012,07,01,05,03,12.00
2012,07,01,05,04,11.90
2012,07,01,05,05,12.00
2012,07,01,05,06,12.00
2012,07,01,05,07,12.00
2012,07,01,05,08,12.00
2012,07,01,05,09,12.00
2012,07,01,05,10,11.90
2012,07,01,05,11,12.00
2012,07,01,05,12,11.90
2012,07,01,05,13,11.90
2012,07,01,05,14,11.90
2012,07,01,05,15,11.90
2012,07,01,05,16,11.90
2012,07,01,05,17,11.90
2012,07,01,05,18,11.90
2012,07,01,05,19,11.90
2012,07,01,05,20,11.90
2012,07,01,05,21,11.90
2012,07,01,05,22,11.90
2012,07,01,05,23,11.90
2012,07,01,05,24,11.90
2012,07,01,05,25,11.90
2012,07,01,05,26,11.90
2012,07,01,05,27,11.90
2012,07,01,05,28,11.90
2012,07,01,05,29,12.00
2012,07,01,05,30,12.00
2012,07,01,05,31,12.00
2012,07,01,05,32,12.00
2012,07,01,05,33,12.00
2012,07,01,05,34,12.00
2012,07,01,05,35,12.00
2012,07,01,05,36,12.00
2012,07,01,05,37,12.00
2012,07,01,05,38,12.00
2012,07,01,05,39,11.90
2012,07,01,05,40,12.00
2012,07,01,05,41,12.00
2012,07,01,05,42,12.00
2012,07,01,05,43,12.00
2012,07,01,05,44,12.00
2012,07,01,05,45,12.00
2012,07,01,05,46,12.00
2012,07,01,05,47,12.00
2012,07,01,05,48,12.00
2012,07,01,05,49,12.00
2012,07,01,05,50,12.00
2012,07,01,05,51,12.00
2012,07,01,05,52,12.00
2012,07,01,05,53,12.00
2012,07,01,05,54,12.00
2012,07,01,05,55,12.00
2012,07,01,05,56,12.00
2012,07,01,05,57,12.00
2012,07,01,05,58,12.00
2012,07,01,05,59,12.00
2012,07,01,06,00,12.00
2012,07,01,06,01,12.00
2012,07,01,06,02,12.00
2012,07,01,06,03,12.00
2012,07,01,06,04,12.00
2012,07,01,06,05,12.00
2012,07,01,06,06,12.00
2012,07,01,06,07,12.00
2012,07,01,06,08,12.00
2012,07,01,06,09,12.00
2012,07,01,06,10,12.00
2012,07,01,06,11,12.00
2012,07,01,06,12,12.00
2012,07,01,06,13,12.00
2012,07,01,06,14,12.00
2012,07,01,06,15,12.00
2012,07,01,06,16,12.00
2012,07,01,06,17,12.00
2012,07,01,06,18,12.00
2012,07,01,06,19,12.10
2012,07,01,06,20,12.10
2012,07,01,06,21,12.10
2012,07,01,06,22,12.10
2012,07,01,06,23,12.10
2012,07,01,06,24,12.10
2012,07,01,06,25,12.10
2012,07,01,06,26,12.10
2012,07,01,06,27,12.10
2012,07,01,06,28,12.10
2012,07,01,06,29,12.10
2012,07,01,06,30,12.10
2012,07,01,06,31,12.10
2012,07,01,06,32,12.10
2012,07,01,06,33,12.10
2012,07,01,06,34,12.10
2012,07,01,06,35,12.10
2012,07,01,06,36,12.10
2012,07,01,06,37,12.10
2012,07,01,06,38,12.10
2012,07,01,06,39,12.10
2012,07,01,06,40,12.10
2012,07,01,06,41,12.10
2012,07,01,06,42,12.10
2012,07,01,06,43,12.10
2012,07,01,06,44,12.10
2012,07,01,06,45,12.10
2012,07,01,06,46,12.10
2012,07,01,06,47,12.10
2012,07,01,06,48,12.10
2012,07,01,06,49,12.10
2012,07,01,06,50,12.10
2012,07,01,06,51,12.10
2012,07,01,06,52,12.10
2012,07,01,06,53,12.10
2012,07,01,06,54,12.10
2012,07,01,06,55,12.10
2012,07,01,06,56,12.10
2012,07,01,06,57,12.10
2012,07,01,06,58,12.10
2012,07,01,06,59,12.10
2012,07,01,07,00,12.10
2012,07,01,07,01,12.10
2012,07,01,07,02,12.10
2012,07,01,07,03,12.10
2012,07,01,07,04,12.10
2012,07,01,07,05,12.10
2012,07,01,07,06,12.10
2012,07,01,07,07,12.10
2012,07,01,07,08,12.10
2012,07,01,07,09,12.10
2012,07,01,07,10,12.10
2012,07,01,07,11,12.10
2012,07,01,07,12,12.10
2012,07,01,07,13,12.10
2012,07,01,07,14,12.10
2012,07,01,07,15,12.20
2012,07,01,07,16,12.20
2012,07,01,07,17,12.20
2012,07,01,07,18,12.20
2012,07,01,07,19,12.20
2012,07,01,07,20,12.20
2012,07,01,07,21,12.20
2012,07,01,07,22,12.20
2012,07,01,07,23,12.20
2012,07,01,07,24,12.20
2012,07,01,07,25,12.20
2012,07,01,07,26,12.20
2012,07,01,07,27,12.20
2012,07,01,07,28,12.20
2012,07,01,07,29,12.20
2012,07,01,07,30,12.20
2012,07,01,07,31,12.20
2012,07,01,07,32,12.10
2012,07,01,07,33,12.10
2012,07,01,07,34,12.20
2012,07,01,07,35,12.20
2012,07,01,07,36,12.20
2012,07,01,07,37,12.20
2012,07,01,07,38,12.20
2012,07,01,07,39,12.20
2012,07,01,07,40,12.10
2012,07,01,07,41,12.10
2012,07,01,07,42,12.10
2012,07,01,07,43,12.10
2012,07,01,07,44,12.10
2012,07,01,07,45,12.10
2012,07,01,07,46,12.10
2012,07,01,07,47,12.10
2012,07,01,07,48,12.10
2012,07,01,07,49,12.10
2012,07,01,07,50,12.10
2012,07,01,07,51,12.10
2012,07,01,07,52,12.10
2012,07,01,07,53,12.10
2012,07,01,07,54,12.10
2012,07,01,07,55,12.10
2012,07,01,07,56,12.10
2012,07,01,07,57,12.10
2012,07,01,07,58,12.10
2012,07,01,07,59,12.10
2012,07,01,08,00,12.10
2012,07,01,08,01,12.10
2012,07,01,08,02,12.10
2012,07,01,08,03,12.20
2012,07,01,08,04,12.20
2012,07,01,08,05,12.20
2012,07,01,08,06,12.20
2012,07,01,08,07,12.20
2012,07,01,08,08,12.20
2012,07,01,08,09,12.20
2012,07,01,08,10,12.20
2012,07,01,08,11,12.20
2012,07,01,08,12,12.20
2012,07,01,08,13,12.30
2012,07,01,08,14,12.30
2012,07,01,08,15,12.30
2012,07,01,08,16,12.30
2012,07,01,08,17,12.30
2012,07,01,08,18,12.30
2012,07,01,08,19,12.30
2012,07,01,08,20,12.30
2012,07,01,08,21,12.30
2012,07,01,08,22,12.30
2012,07,01,08,23,12.30
2012,07,01,08,24,12.30
2012,07,01,08,25,12.30
2012,07,01,08,26,12.30
2012,07,01,08,27,12.30
2012,07,01,08,28,12.30
2012,07,01,08,29,12.30
2012,07,01,08,30,12.40
2012,07,01,08,31,12.40
2012,07,01,08,32,12.40
2012,07,01,08,33,12.40
2012,07,01,08,34,12.40
2012,07,01,08,35,12.50
2012,07,01,08,36,12.50
2012,07,01,08,37,12.50
2012,07,01,08,38,12.60
2012,07,01,08,39,12.60
2012,07,01,08,40,12.60
2012,07,01,08,41,12.50
2012,07,01,08,42,12.50
2012,07,01,08,43,12.50
2012,07,01,08,44,12.50
2012,07,01,08,45,12.50
2012,07,01,08,46,12.50
2012,07,01,08,47,12.50
2012,07,01,08,48,12.40
2012,07,01,08,49,12.50
2012,07,01,08,50,12.50
2012,07,01,08,51,12.50
2012,07,01,08,52,12.50
2012,07,01,08,53,12.50
2012,07,01,08,54,12.50
2012,07,01,08,55,12.50
2012,07,01,08,56,12.50
2012,07,01,08,57,12.50
2012,07,01,08,58,12.50
2012,07,01,08,59,12.50
2012,07,01,09,00,12.50
2012,07,01,09,01,12.50
2012,07,01,09,02,12.50
2012,07,01,09,03,12.60
2012,07,01,09,04,12.60
2012,07,01,09,05,12.60
2012,07,01,09,06,12.60
2012,07,01,09,07,12.60
2012,07,01,09,08,12.60
2012,07,01,09,09,12.60
2012,07,01,09,10,12.60
2012,07,01,09,11,12.60
2012,07,01,09,12,12.60
2012,07,01,09,13,12.60
2012,07,01,09,14,12.60
2012,07,01,09,15,12.60
2012,07,01,09,16,12.50
2012,07,01,09,17,12.50
2012,07,01,09,18,12.50
2012,07,01,09,19,12.60
2012,07,01,09,20,12.60
2012,07,01,09,21,12.60
2012,07,01,09,22,12.60
2012,07,01,09,23,12.70
2012,07,01,09,24,12.70
2012,07,01,09,25,12.70
2012,07,01,09,26,12.70
2012,07,01,09,27,12.70
2012,07,01,09,28,12.70
2012,07,01,09,29,12.70
2012,07,01,09,30,12.70
2012,07,01,09,31,12.70
2012,07,01,09,32,12.70
2012,07,01,09,33,12.70
2012,07,01,09,34,12.70
2012,07,01,09,35,12.70
2012,07,01,09,36,12.70
2012,07,01,09,37,12.70
2012,07,01,09,38,12.70
2012,07,01,09,39,12.70
2012,07,01,09,40,12.70
2012,07,01,09,41,12.70
2012,07,01,09,42,12.70
2012,07,01,09,43,12.70
2012,07,01,09,44,12.70
2012,07,01,09,45,12.80
2012,07,01,09,46,12.80
2012,07,01,09,47,12.90
2012,07,01,09,48,12.90
2012,07,01,09,49,13.00
2012,07,01,09,50,13.10
2012,07,01,09,51,13.20
2012,07,01,09,52,13.20
2012,07,01,09,53,13.20
2012,07,01,09,54,13.10
2012,07,01,09,55,13.20
2012,07,01,09,56,13.20
2012,07,01,09,57,13.20
2012,07,01,09,58,13.20
2012,07,01,09,59,13.20
2012,07,01,10,00,13.20
2012,07,01,10,01,13.20
2012,07,01,10,02,13.20
2012,07,01,10,03,13.10
2012,07,01,10,04,13.10
2012,07,01,10,05,13.20
2012,07,01,10,06,13.20
2012,07,01,10,07,13.20
2012,07,01,10,08,13.20
2012,07,01,10,09,13.20
2012,07,01,10,10,13.20
2012,07,01,10,11,13.20
2012,07,01,10,12,13.20
2012,07,01,10,13,13.20
2012,07,01,10,14,13.20
2012,07,01,10,15,13.20
2012,07,01,10,16,13.30
2012,07,01,10,17,13.30
2012,07,01,10,18,13.30
2012,07,01,10,19,13.40
2012,07,01,10,20,13.40
2012,07,01,10,21,13.40
2012,07,01,10,22,13.40
2012,07,01,10,23,13.50
2012,07,01,10,24,13.60
2012,07,01,10,25,13.60
2012,07,01,10,26,13.50
2012,07,01,10,27,13.60
2012,07,01,10,28,13.60
2012,07,01,10,29,13.60
2012,07,01,10,30,13.70
2012,07,01,10,31,13.60
2012,07,01,10,32,13.60
2012,07,01,10,33,13.60
2012,07,01,10,34,13.60
2012,07,01,10,35,13.60
2012,07,01,10,36,13.60
2012,07,01,10,37,13.60
2012,07,01,10,38,13.50
2012,07,01,10,39,13.50
2012,07,01,10,40,13.50
2012,07,01,10,41,13.60
2012,07,01,10,42,13.60
2012,07,01,10,43,13.70
2012,07,01,10,44,13.70
2012,07,01,10,45,13.70
2012,07,01,10,46,13.70
2012,07,01,10,47,13.70
2012,07,01,10,48,13.70
2012,07,01,10,49,13.70
2012,07,01,10,50,13.60
2012,07,01,10,51,13.40
2012,07,01,10,52,13.40
2012,07,01,10,53,13.40
2012,07,01,10,54,13.40
2012,07,01,10,55,13.50
2012,07,01,10,56,13.60
2012,07,01,10,57,13.70
2012,07,01,10,58,13.60
2012,07,01,10,59,13.60
2012,07,01,11,00,13.60
2012,07,01,11,01,13.50
2012,07,01,11,02,13.50
2012,07,01,11,03,13.60
2012,07,01,11,04,13.60
2012,07,01,11,05,13.50
2012,07,01,11,06,13.40
2012,07,01,11,07,13.40
2012,07,01,11,08,13.40
2012,07,01,11,09,13.40
2012,07,01,11,10,13.40
2012,07,01,11,11,13.40
2012,07,01,11,12,13.30
2012,07,01,11,13,13.30
2012,07,01,11,14,13.40
2012,07,01,11,15,13.30
2012,07,01,11,16,13.30
2012,07,01,11,17,13.40
2012,07,01,11,18,13.40
2012,07,01,11,19,13.50
2012,07,01,11,20,13.60
2012,07,01,11,21,13.60
2012,07,01,11,22,13.50
2012,07,01,11,23,13.50
2012,07,01,11,24,13.40
2012,07,01,11,25,13.40
2012,07,01,11,26,13.40
2012,07,01,11,27,13.50
2012,07,01,11,28,13.70
2012,07,01,11,29,13.80
2012,07,01,11,30,13.90
2012,07,01,11,31,13.90
2012,07,01,11,32,14.00
2012,07,01,11,33,14.10
2012,07,01,11,34,14.10
2012,07,01,11,35,14.10
2012,07,01,11,36,14.10
2012,07,01,11,37,14.10
2012,07,01,11,38,14.10
2012,07,01,11,39,14.00
2012,07,01,11,40,13.90
2012,07,01,11,41,13.80
2012,07,01,11,42,13.80
2012,07,01,11,43,13.70
2012,07,01,11,44,13.70
2012,07,01,11,45,13.70
2012,07,01,11,46,13.80
2012,07,01,11,47,13.80
2012,07,01,11,48,13.80
2012,07,01,11,49,13.80
2012,07,01,11,50,13.80
2012,07,01,11,51,13.80
2012,07,01,11,52,13.80
2012,07,01,11,53,13.90
2012,07,01,11,54,13.90
2012,07,01,11,55,13.90
2012,07,01,11,56,13.90
2012,07,01,11,57,13.80
2012,07,01,11,58,13.80
2012,07,01,11,59,13.80
2012,07,01,12,00,13.90
2012,07,01,12,01,13.90
2012,07,01,12,02,13.90
2012,07,01,12,03,13.90
2012,07,01,12,04,13.80
2012,07,01,12,05,13.80
2012,07,01,12,06,13.80
2012,07,01,12,07,13.80
2012,07,01,12,08,13.80
2012,07,01,12,09,13.80
2012,07,01,12,10,13.80
2012,07,01,12,11,13.80
2012,07,01,12,12,13.80
2012,07,01,12,13,13.90
2012,07,01,12,14,13.80
2012,07,01,12,15,13.70
2012,07,01,12,16,13.60
2012,07,01,12,17,13.60
2012,07,01,12,18,13.50
2012,07,01,12,19,13.50
2012,07,01,12,20,13.60
2012,07,01,12,21,13.60
2012,07,01,12,22,13.50
2012,07,01,12,23,13.50
2012,07,01,12,24,13.60
2012,07,01,12,25,13.60
2012,07,01,12,26,13.60
2012,07,01,12,27,13.60
2012,07,01,12,28,13.60
2012,07,01,12,29,13.60
2012,07,01,12,30,13.60
2012,07,01,12,31,13.60
2012,07,01,12,32,13.60
2012,07,01,12,33,13.70
2012,07,01,12,34,13.70
2012,07,01,12,35,13.70
2012,07,01,12,36,13.70
2012,07,01,12,37,13.80
2012,07,01,12,38,13.80
2012,07,01,12,39,13.80
2012,07,01,12,40,13.80
2012,07,01,12,41,13.80
2012,07,01,12,42,13.70
2012,07,01,12,43,13.80
2012,07,01,12,44,13.70
2012,07,01,12,45,13.70
2012,07,01,12,46,13.60
2012,07,01,12,47,13.60
2012,07,01,12,48,13.70
2012,07,01,12,49,13.80
2012,07,01,12,50,13.90
2012,07,01,12,51,13.90
2012,07,01,12,52,13.90
2012,07,01,12,53,13.90
2012,07,01,12,54,13.90
2012,07,01,12,55,13.90
2012,07,01,12,56,14.00
2012,07,01,12,57,14.10
2012,07,01,12,58,14.20
2012,07,01,12,59,14.20
2012,07,01,13,00,14.20
2012,07,01,13,01,14.30
2012,07,01,13,02,14.40
2012,07,01,13,03,14.40
2012,07,01,13,04,14.40
2012,07,01,13,05,14.40
2012,07,01,13,06,14.40
2012,07,01,13,07,14.40
2012,07,01,13,08,14.30
2012,07,01,13,09,14.20
2012,07,01,13,10,14.10
2012,07,01,13,11,14.10
2012,07,01,13,12,14.10
2012,07,01,13,13,14.00
2012,07,01,13,14,13.90
2012,07,01,13,15,13.90
2012,07,01,13,16,13.90
2012,07,01,13,17,13.80
2012,07,01,13,18,13.90
2012,07,01,13,19,14.00
2012,07,01,13,20,14.00
2012,07,01,13,21,14.10
2012,07,01,13,22,14.20
2012,07,01,13,23,14.20
2012,07,01,13,24,14.30
2012,07,01,13,25,14.20
2012,07,01,13,26,14.20
2012,07,01,13,27,14.20
2012,07,01,13,28,14.10
2012,07,01,13,29,14.10
2012,07,01,13,30,14.10
2012,07,01,13,31,14.00
2012,07,01,13,32,14.00
2012,07,01,13,33,14.00
2012,07,01,13,34,14.00
2012,07,01,13,35,14.10
2012,07,01,13,36,14.10
2012,07,01,13,37,14.10
2012,07,01,13,38,14.00
2012,07,01,13,39,13.90
2012,07,01,13,40,13.90
2012,07,01,13,41,13.80
2012,07,01,13,42,13.90
2012,07,01,13,43,13.90
2012,07,01,13,44,13.90
2012,07,01,13,45,13.80
2012,07,01,13,46,13.90
2012,07,01,13,47,13.90
2012,07,01,13,48,13.90
2012,07,01,13,49,13.90
2012,07,01,13,50,14.00
2012,07,01,13,51,14.10
2012,07,01,13,52,14.10
2012,07,01,13,53,14.00
2012,07,01,13,54,13.90
2012,07,01,13,55,13.90
2012,07,01,13,56,13.90
2012,07,01,13,57,13.80
2012,07,01,13,58,13.80
2012,07,01,13,59,13.80
2012,07,01,14,00,13.70
2012,07,01,14,01,13.80
2012,07,01,14,02,13.80
2012,07,01,14,03,13.80
2012,07,01,14,04,13.80
2012,07,01,14,05,13.90
2012,07,01,14,06,14.00
2012,07,01,14,07,14.10
2012,07,01,14,08,14.20
2012,07,01,14,09,14.20
2012,07,01,14,10,14.20
2012,07,01,14,11,14.20
2012,07,01,14,12,14.30
2012,07,01,14,13,14.30
2012,07,01,14,14,14.30
2012,07,01,14,15,14.20
2012,07,01,14,16,14.10
2012,07,01,14,17,14.10
2012,07,01,14,18,14.10
2012,07,01,14,19,14.10
2012,07,01,14,20,14.20
2012,07,01,14,21,14.20
2012,07,01,14,22,14.20
2012,07,01,14,23,14.10
2012,07,01,14,24,14.10
2012,07,01,14,25,14.20
2012,07,01,14,26,14.30
2012,07,01,14,27,14.30
2012,07,01,14,28,14.40
2012,07,01,14,29,14.40
2012,07,01,14,30,14.40
2012,07,01,14,31,14.30
2012,07,01,14,32,14.20
2012,07,01,14,33,14.10
2012,07,01,14,34,14.00
2012,07,01,14,35,14.00
2012,07,01,14,36,14.00
2012,07,01,14,37,14.00
2012,07,01,14,38,14.00
2012,07,01,14,39,13.90
2012,07,01,14,40,14.00
2012,07,01,14,41,14.00
2012,07,01,14,42,14.10
2012,07,01,14,43,14.10
2012,07,01,14,44,14.00
2012,07,01,14,45,13.90
2012,07,01,14,46,14.00
2012,07,01,14,47,14.00
2012,07,01,14,48,14.10
2012,07,01,14,49,14.20
2012,07,01,14,50,14.20
2012,07,01,14,51,14.30
2012,07,01,14,52,14.40
2012,07,01,14,53,14.40
2012,07,01,14,54,14.30
2012,07,01,14,55,14.20
2012,07,01,14,56,14.20
2012,07,01,14,57,14.20
2012,07,01,14,58,14.20
2012,07,01,14,59,14.30
2012,07,01,15,00,14.50
2012,07,01,15,01,14.50
2012,07,01,15,02,14.50
2012,07,01,15,03,14.60
2012,07,01,15,04,14.70
2012,07,01,15,05,14.70
2012,07,01,15,06,14.70
2012,07,01,15,07,14.80
2012,07,01,15,08,14.80
2012,07,01,15,09,14.80
2012,07,01,15,10,14.80
2012,07,01,15,11,14.70
2012,07,01,15,12,14.50
2012,07,01,15,13,14.30
2012,07,01,15,14,14.30
2012,07,01,15,15,14.20
2012,07,01,15,16,14.20
2012,07,01,15,17,14.20
2012,07,01,15,18,14.20
2012,07,01,15,19,14.20
2012,07,01,15,20,14.30
2012,07,01,15,21,14.40
2012,07,01,15,22,14.50
2012,07,01,15,23,14.60
2012,07,01,15,24,14.70
2012,07,01,15,25,14.80
2012,07,01,15,26,14.90
2012,07,01,15,27,14.90
2012,07,01,15,28,14.90
2012,07,01,15,29,14.90
2012,07,01,15,30,14.70
2012,07,01,15,31,14.50
2012,07,01,15,32,14.50
2012,07,01,15,33,14.50
2012,07,01,15,34,14.50
2012,07,01,15,35,14.60
2012,07,01,15,36,14.60
2012,07,01,15,37,14.60
2012,07,01,15,38,14.50
2012,07,01,15,39,14.40
2012,07,01,15,40,14.50
2012,07,01,15,41,14.40
2012,07,01,15,42,14.40
2012,07,01,15,43,14.40
2012,07,01,15,44,14.60
2012,07,01,15,45,14.60
2012,07,01,15,46,14.60
2012,07,01,15,47,14.60
2012,07,01,15,48,14.60
2012,07,01,15,49,14.60
2012,07,01,15,50,14.50
2012,07,01,15,51,14.40
2012,07,01,15,52,14.30
2012,07,01,15,53,14.20
2012,07,01,15,54,14.20
2012,07,01,15,55,14.10
2012,07,01,15,56,14.20
2012,07,01,15,57,14.10
2012,07,01,15,58,14.20
2012,07,01,15,59,14.20
2012,07,01,16,00,14.20
2012,07,01,16,01,14.30
2012,07,01,16,02,14.30
2012,07,01,16,03,14.30
2012,07,01,16,04,14.30
2012,07,01,16,05,14.20
2012,07,01,16,06,14.30
2012,07,01,16,07,14.30
2012,07,01,16,08,14.30
2012,07,01,16,09,14.20
2012,07,01,16,10,14.20
2012,07,01,16,11,14.20
2012,07,01,16,12,14.20
2012,07,01,16,13,14.20
2012,07,01,16,14,14.20
2012,07,01,16,15,14.30
2012,07,01,16,16,14.30
2012,07,01,16,17,14.40
2012,07,01,16,18,14.30
2012,07,01,16,19,14.30
2012,07,01,16,20,14.30
2012,07,01,16,21,14.20
2012,07,01,16,22,14.20
2012,07,01,16,23,14.10
2012,07,01,16,24,14.00
2012,07,01,16,25,13.90
2012,07,01,16,26,13.90
2012,07,01,16,27,13.90
2012,07,01,16,28,13.90
2012,07,01,16,29,13.90
2012,07,01,16,30,13.90
2012,07,01,16,31,13.80
2012,07,01,16,32,13.80
2012,07,01,16,33,13.80
2012,07,01,16,34,13.80
2012,07,01,16,35,13.80
2012,07,01,16,36,13.90
2012,07,01,16,37,13.90
2012,07,01,16,38,14.00
2012,07,01,16,39,14.00
2012,07,01,16,40,14.00
2012,07,01,16,41,13.90
2012,07,01,16,42,13.90
2012,07,01,16,43,13.90
2012,07,01,16,44,13.90
2012,07,01,16,45,13.90
2012,07,01,16,46,13.90
2012,07,01,16,47,13.90
2012,07,01,16,48,13.90
2012,07,01,16,49,13.90
2012,07,01,16,50,14.00
2012,07,01,16,51,14.00
2012,07,01,16,52,13.90
2012,07,01,16,53,13.90
2012,07,01,16,54,13.80
2012,07,01,16,55,13.80
2012,07,01,16,56,13.80
2012,07,01,16,57,13.70
2012,07,01,16,58,13.80
2012,07,01,16,59,13.80
2012,07,01,17,00,13.90
2012,07,01,17,01,14.00
2012,07,01,17,02,14.10
2012,07,01,17,03,14.10
2012,07,01,17,04,14.10
2012,07,01,17,05,14.10
2012,07,01,17,06,14.10
2012,07,01,17,07,14.10
2012,07,01,17,08,14.10
2012,07,01,17,09,14.10
2012,07,01,17,10,14.00
2012,07,01,17,11,14.00
2012,07,01,17,12,14.10
2012,07,01,17,13,14.20
2012,07,01,17,14,14.20
2012,07,01,17,15,14.10
2012,07,01,17,16,14.00
2012,07,01,17,17,14.00
2012,07,01,17,18,14.00
2012,07,01,17,19,14.00